Temperature
19 19 19 19 19 19 19 19 19 19 18 18 18 18 17 17 17 16 16 16 16 16 16 16 16 16 16 16 16 16 16 15 15 15 15 15 16 16 17 17 17 17 17
19 19 19 19 19 19 19 19 19 18 18 18 17 17 17 17 16 16 16 16 15 15 15 15 15 15 15 15 15 15 15 15 15 14 14 15 15 16 17 17 17 17 17
20 20 19 19 19 19 19 19 19 18 18 17 17 17 16 16 16 16 16 15 15 15 15 15 15 15 15 15 15 15 14 14 14 14 14 14 15 16 16 17 17 17 17
20 20 20 20 20 19 19 19 18 18 17 17 17 16 16 16 15 15 15 15 15 15 15 15 14 14 14 14 14 14 14 14 14 14 14 14 14 14 15 16 17 17 17
20 20 20 20 20 19 19 18 18 17 17 16 16 16 15 15 15 14 14 14 14 14 14 14 14 14 14 14 14 14 14 14 14 14 14 14 14 14 14 15 16 16 17
21 21 20 20 19 19 18 18 17 17 16 16 15 15 15 14 14 14 13 13 13 13 13 13 13 13 13 13 13 13 13 14 14 14 14 13 13 14 14 14 15 16 16
21 21 20 20 19 18 18 17 17 16 16 15 15 14 14 13 13 13 13 13 12 12 13 13 13 13 13 13 13 13 13 13 13 13 13 13 13 13 13 14 14 15 16
21 20 20 19 19 18 17 17 16 16 15 15 14 14 13 13 13 12 12 12 12 12 12 12 12 12 12 12 12 12 12 12 13 13 13 13 13 13 13 13 14 14 15
20 20 19 19 18 18 17 16 16 15 14 14 13 13 13 12 12 12 12 11 11 11 11 11 11 11 11 11 12 12 12 12 12 12 12 13 13 13 13 13 13 13 14
20 19 19 18 18 17 16 16 15 14 14 13 13 12 12 12 11 11 11 11 11 11 10 11 11 11 11 11 11 11 11 11 11 12 12 12 12 12 12 13 13 13 13
19 19 18 18 17 16 16 15 14 14 13 12 12 12 11 11 11 11 10 10 10 10 10 10 10 10 10 10 10 11 11 11 11 11 11 12 12 12 12 12 12 13 13
19 18 18 17 16 16 15 14 13 13 12 12 11 11 11 11 10 10 10 10 10 10 10 10 10 10 10 10 10 10 10 10 10 11 11 11 11 11 11 12 12 12 12
18 17 17 16 15 15 14 13 13 12 12 11 11 11 10 10 10 9 9 9 9 9 9 9 9 9 9 9 9 9 10 10 10 10 10 11 11 11 11 11 11 12 12
17 17 16 15 15 14 13 13 12 12 11 11 11 10 10 10 9 9 9 9 9 9 8 8 8 8 8 9 9 9 9 9 10 10 10 10 10 11 11 11 11 11 11
17 16 15 15 14 13 13 12 12 12 11 11 10 10 9 9 9 9 8 8 8 8 8 8 8 8 8 8 8 9 9 9 9 9 10 10 10 10 10 10 11 11 11
16 16 15 14 14 13 13 12 12 11 11 10 10 9 9 9 9 8 8 8 8 8 8 8 8 8 8 8 8 8 8 8 8 8 9 9 10 10 10 10 10 10 11
16 15 14 14 13 13 12 12 11 11 10 10 9 9 9 8 8 8 8 8 8 8 8 8 8 8 8 8 7 7 7 7 8 8 8 9 9 9 10 10 10 10 10
16 15 14 14 13 12 12 11 11 10 10 10 9 9 8 8 8 8 8 8 8 8 8 8 8 8 8 8 7 7 7 7 7 8 8 8 9 9 9 10 10 10 10
15 15 14 13 13 12 12 11 11 10 10 9 9 8 8 8 8 8 8 8 8 8 8 8 8 8 8 8 7 7 7 7 7 7 8 8 8 9 9 9 9 10 10
15 14 14 13 12 12 11 11 10 10 9 9 9 8 8 8 8 8 8 8 8 8 8 8 8 7 7 7 7 7 7 7 7 7 7 8 8 8 8 9 9 9 10
15 14 14 13 12 12 11 11 10 9 9 9 8 8 8 8 8 8 8 8 8 8 8 7 7 7 7 7 7 7 7 7 7 7 7 7 8 8 8 9 9 9 9
15 14 13 13 12 11 11 10 10 9 9 9 8 8 8 8 8 8 8 8 8 8 7 7 7 7 7 7 7 7 7 7 7 7 7 7 8 8 8 8 9 9 9
15 14 13 12 12 11 11 10 10 9 9 9 8 8 8 8 8 8 8 8 8 8 7 7 7 7 7 7 7 7 7 7 7 7 7 7 7 8 8 8 9 9 9
15 14 13 12 12 11 10 10 9 9 9 8 8 8 8 8 8 8 8 8 8 8 7 7 7 7 7 6 7 7 7 7 6 7 7 7 7 8 8 8 8 9 9
14 14 13 12 11 11 10 10 9 9 9 9 8 8 8 8 8 8 8 8 8 8 7 7 7 7 6 6 6 6 7 7 6 6 7 7 7 7 8 8 8 9 9
14 13 13 12 11 11 10 10 9 9 9 9 9 8 8 8 8 8 9 9 8 8 8 7 7 7 6 6 6 6 6 6 6 6 7 7 7 8 8 8 8 9 9
Wind_Speed
5 6 7 7 6 5 5 4 4 3 3 3 2 2 1 2 2 1 1 2 2 2 2 2 2 2 2 3 4 3 4 4 3 2 3 4 7 8 8 8 8 10 12
4 5 6 5 5 5 5 5 5 4 4 3 2 2 1 1 1 1 1 1 2 3 3 3 3 3 2 3 3 2 2 3 2 2 2 3 3 5 8 7 8 10 9
6 6 6 6 6 7 7 6 6 5 4 4 2 2 2 2 3 3 2 3 4 5 4 4 4 3 3 3 3 2 2 3 2 2 3 2 3 3 3 6 7 8 8
6 6 7 7 7 8 7 6 6 5 4 4 3 2 2 1 2 2 3 4 4 5 5 5 5 4 4 4 4 3 2 2 3 2 3 3 2 2 3 3 4 6 7
7 8 7 7 6 5 5 4 4 4 3 3 4 3 1 2 2 3 4 5 5 5 5 4 5 5 5 5 5 3 3 3 3 3 2 2 2 3 2 3 3 2 4
6 6 4 3 2 2 3 3 4 2 2 3 3 3 3 3 3 4 5 5 4 4 5 4 4 5 5 6 6 5 5 4 4 3 3 2 2 2 2 3 3 3 3
4 3 2 3 3 3 4 3 4 2 1 2 2 3 4 4 5 5 5 4 4 4 5 4 4 4 5 6 6 5 6 5 5 4 4 3 3 2 2 2 2 3 2
2 3 4 4 4 4 3 3 3 1 1 1 3 3 3 3 4 5 4 5 4 5 6 5 4 5 5 6 6 5 6 5 6 6 5 3 4 3 2 2 1 2 2
5 6 5 5 5 4 3 2 2 0 2 3 4 4 4 4 5 5 5 5 5 5 6 5 5 6 6 6 6 6 7 6 6 6 6 4 4 4 3 3 3 2 2
5 5 4 4 3 3 2 2 2 1 2 3 4 3 4 5 5 5 6 6 6 6 6 6 6 6 6 7 6 6 7 7 7 6 6 5 4 4 4 4 3 3 3
6 4 3 3 3 2 1 0 1 2 3 4 4 4 5 5 5 5 6 7 6 7 7 7 7 7 7 7 6 7 8 9 8 8 8 8 6 5 5 4 4 4 4
5 4 3 2 1 0 1 2 3 3 4 4 4 5 5 6 6 6 7 7 7 7 7 7 7 8 8 8 8 8 8 9 9 9 9 9 7 7 6 5 6 5 5
4 2 1 0 1 2 3 4 4 4 5 4 5 6 6 7 7 8 8 7 8 8 8 7 8 8 9 9 9 9 9 9 10 10 10 10 8 8 6 6 6 5 5
4 2 1 2 3 4 4 5 5 5 5 5 5 7 7 7 8 8 8 8 8 8 8 8 8 9 9 9 9 9 9 9 10 10 10 10 10 10 9 7 7 6 5
3 2 2 3 4 5 5 5 5 6 5 6 6 7 7 7 7 8 8 8 8 9 8 8 9 9 9 10 10 9 10 9 9 9 9 10 12 13 11 8 8 7 6
3 2 3 3 4 5 5 4 5 6 5 6 7 7 7 7 8 8 8 8 9 9 9 9 9 10 10 13 14 11 8 7 8 9 8 9 11 13 15 15 14 12 9
4 3 4 5 5 4 4 4 5 6 6 7 7 7 7 8 8 9 9 9 9 9 10 10 9 10 12 16 16 16 10 8 8 9 8 9 10 10 8 12 15 15 15
4 4 4 4 4 3 4 4 5 6 6 7 7 8 8 9 9 9 9 10 9 9 10 10 10 10 13 15 16 17 11 9 9 10 9 9 8 9 8 8 8 9 10
4 4 4 3 3 4 4 4 6 6 7 7 8 8 9 10 10 10 11 10 9 10 10 9 10 11 12 14 15 14 7 8 9 10 9 9 10 12 12 9 8 8 7
3 3 3 2 3 5 4 4 6 7 7 8 9 9 9 10 11 11 11 9 9 10 9 10 9 10 11 13 14 12 6 7 7 7 8 12 12 13 14 10 9 9 7
2 2 1 2 4 5 3 5 6 7 8 8 9 10 9 10 10 9 8 9 9 9 8 9 9 8 9 11 12 12 7 7 7 6 6 8 14 15 16 13 10 11 9
2 1 1 4 5 4 3 5 7 7 7 8 9 10 10 10 10 9 9 9 8 8 8 7 7 6 6 7 8 10 10 9 7 6 6 7 13 14 14 11 11 12 10
3 2 2 4 5 5 4 5 6 6 7 8 9 10 11 9 9 9 9 8 7 6 6 6 6 6 5 5 7 7 8 9 6 5 7 7 10 11 9 11 12 10 6
3 2 2 4 5 6 5 5 6 6 7 8 9 9 10 10 10 8 7 6 6 6 6 5 6 5 5 4 4 3 2 4 5 3 4 5 6 5 6 7 7 6 7
3 3 3 4 6 6 5 5 5 5 7 8 9 9 9 9 9 9 7 7 6 6 6 5 4 4 5 5 7 4 2 3 4 4 3 3 3 4 3 4 5 5 5
3 3 4 5 6 5 5 5 5 5 7 8 8 8 8 8 8 9 9 9 8 9 9 8 6 5 6 8 7 4 3 3 6 5 3 4 4 5 5 6 5 5 6
Wind_Direction
130 126 125 123 116 112 111 107 100 93 87 70 63 50 8 342 353 325 249 212 202 201 196 223 235 230 233 250 263 267 266 257 233 241 267 262 243 235 232 226 223 220 218
145 146 144 143 142 148 150 149 151 145 137 140 151 160 185 272 296 337 339 297 256 243 226 218 225 229 231 255 262 254 262 263 223 205 238 275 279 249 236 220 219 221 217
183 173 169 174 172 176 181 177 180 170 163 153 122 69 42 15 8 349 326 301 282 267 254 234 228 225 212 228 240 235 226 253 263 220 209 227 254 288 264 231 224 215 210
197 190 189 192 195 200 192 185 181 174 169 145 123 126 135 225 257 266 276 293 288 279 270 249 237 227 218 219 229 215 208 217 246 252 230 223 221 259 299 290 238 218 212
200 198 198 198 197 192 179 172 162 162 162 145 143 140 174 224 256 278 294 297 297 290 285 263 244 232 225 221 219 216 216 207 216 227 237 239 237 227 244 284 294 264 230
205 202 197 172 158 120 120 128 135 150 163 159 163 176 212 243 272 287 293 295 294 292 296 288 257 244 233 226 221 218 217 219 216 216 216 213 217 227 218 247 265 259 257
186 172 147 111 96 97 110 121 133 164 201 194 217 229 236 244 254 267 269 277 283 284 285 293 269 258 245 238 228 223 225 223 222 219 215 219 217 216 216 225 256 265 271
141 116 115 115 110 110 105 114 129 167 237 243 260 265 261 254 257 257 250 254 254 260 269 272 265 260 258 250 233 229 231 228 230 231 220 216 217 211 212 206 219 266 280
123 115 111 106 101 97 94 112 121 130 280 275 274 274 275 266 263 266 262 262 261 265 268 266 264 261 258 254 240 233 234 228 230 232 228 223 221 207 206 207 199 212 238
119 109 105 104 102 108 107 100 121 217 273 286 284 286 282 277 273 274 275 273 271 270 276 272 266 263 257 250 245 242 237 228 230 228 228 229 225 214 202 204 205 204 212
131 127 128 121 116 111 116 126 294 295 297 293 288 294 291 288 288 283 279 277 274 273 270 268 267 264 260 253 245 242 239 232 233 230 225 230 221 212 208 202 202 208 208
145 147 141 121 100 7 293 285 286 288 285 284 285 286 284 286 286 282 279 277 275 273 268 267 267 266 265 254 245 248 249 235 234 232 225 228 224 216 210 203 201 205 204
142 133 116 112 270 276 277 278 283 279 281 287 290 291 290 287 283 279 276 276 273 272 271 267 263 263 263 259 251 243 242 237 234 229 222 222 214 216 211 208 206 205 208
149 154 208 267 269 271 271 276 276 275 284 291 292 289 286 281 278 277 277 276 273 270 267 263 259 258 258 258 254 248 243 240 237 230 223 218 209 209 206 208 209 203 201
149 165 213 251 267 276 280 277 276 284 289 292 289 283 280 281 283 285 283 281 278 279 268 266 265 261 261 260 253 246 248 241 240 236 228 223 219 214 206 205 199 196 196
173 201 242 263 276 279 277 281 283 285 287 288 286 284 286 290 290 288 284 283 280 276 272 267 265 265 270 269 263 251 245 237 234 236 233 231 230 226 217 213 200 190 189
202 237 260 262 269 264 261 273 277 285 296 293 291 293 293 293 290 293 295 286 282 277 274 270 264 262 261 260 259 256 244 233 231 230 229 236 232 219 216 218 212 204 199
217 250 262 268 263 253 264 275 289 300 301 299 299 298 297 295 292 290 288 285 281 279 276 274 269 265 266 261 255 252 246 238 232 228 221 219 226 222 209 209 207 203 205
214 233 245 243 246 266 277 296 306 307 305 302 301 298 298 299 298 295 291 287 285 285 280 276 272 268 269 263 256 247 233 232 233 230 222 215 219 221 208 196 198 203 212
212 232 254 255 278 279 283 302 304 305 302 299 298 297 296 297 296 294 290 287 284 282 284 282 277 270 268 266 256 239 223 227 231 228 223 220 216 216 204 194 191 202 208
207 217 274 283 277 277 284 297 299 294 291 296 301 301 299 297 293 290 289 291 291 290 289 289 288 282 275 273 262 241 216 216 220 221 219 220 215 211 203 193 191 203 193
240 262 279 289 284 280 284 295 293 287 295 302 305 304 302 303 307 299 297 297 295 296 297 297 300 297 294 286 274 251 222 209 208 216 216 214 207 203 198 195 196 195 184
245 257 256 289 294 286 278 285 286 294 304 308 307 306 306 303 299 296 297 303 301 297 298 300 301 305 308 311 310 283 239 217 206 212 209 207 200 192 191 195 190 183 172
247 255 272 294 295 289 283 272 281 294 305 308 308 307 307 307 306 299 291 292 293 295 298 299 302 305 308 317 329 320 274 219 208 207 196 181 169 160 163 171 178 175 176
239 242 256 272 280 287 286 283 283 299 307 308 307 308 304 302 305 301 290 282 270 257 267 277 279 294 303 305 307 293 259 214 196 164 140 132 145 162 161 158 167 174 171
226 245 263 271 280 288 287 287 286 297 305 309 310 307 306 306 305 305 306 288 271 270 260 249 252 267 273 298 308 292 265 234 185 160 158 168 175 180 180 178 180 181 183
Height
1518 1519 1520 1520 1520 1521 1521 1520 1520 1520 1519 1519 1519 1518 1517 1517 1516 1515 1514 1513 1512 1512 1510 1509 1508 1507 1505 1504 1502 1501 1499 1498 1497 1496 1495 1495 1496 1496 1497 1499 1501 1503 1505
1519 1519 1519 1520 1520 1521 1520 1520 1520 1519 1519 1518 1517 1516 1516 1515 1514 1513 1512 1510 1509 1508 1507 1506 1504 1503 1501 1500 1498 1497 1495 1494 1493 1493 1492 1491 1491 1491 1491 1492 1494 1496 1499
1519 1518 1519 1519 1519 1519 1519 1518 1518 1517 1516 1516 1515 1514 1513 1512 1511 1510 1508 1507 1506 1504 1503 1502 1500 1499 1497 1496 1495 1494 1492 1491 1490 1489 1490 1489 1487 1486 1487 1487 1488 1491 1493
1518 1517 1517 1517 1517 1517 1516 1516 1515 1515 1514 1513 1512 1511 1510 1508 1507 1506 1504 1502 1501 1500 1498 1497 1496 1494 1493 1492 1491 1491 1489 1488 1487 1486 1486 1487 1486 1486 1484 1484 1484 1486 1489
1516 1516 1515 1515 1515 1515 1514 1514 1513 1512 1511 1510 1509 1508 1506 1505 1503 1501 1499 1498 1496 1494 1493 1492 1491 1490 1489 1488 1488 1487 1486 1485 1484 1483 1483 1483 1483 1483 1482 1481 1482 1483 1484
1515 1515 1515 1514 1514 1514 1513 1512 1511 1510 1509 1508 1506 1504 1503 1501 1498 1496 1494 1492 1491 1489 1488 1487 1486 1485 1484 1484 1483 1483 1482 1482 1481 1480 1480 1479 1479 1479 1479 1479 1479 1480 1482
1513 1513 1513 1513 1513 1512 1511 1511 1509 1508 1507 1505 1503 1501 1499 1496 1494 1492 1489 1487 1486 1484 1483 1482 1481 1480 1479 1479 1479 1478 1478 1478 1477 1476 1476 1475 1476 1476 1476 1477 1477 1478 1479
1513 1513 1513 1512 1511 1511 1510 1509 1507 1505 1504 1502 1499 1497 1495 1492 1490 1487 1485 1483 1481 1479 1478 1477 1476 1475 1474 1474 1473 1473 1473 1473 1473 1472 1472 1471 1471 1472 1473 1474 1475 1475 1476
1512 1512 1511 1511 1510 1509 1508 1506 1504 1502 1500 1498 1495 1493 1490 1488 1485 1483 1480 1478 1476 1474 1472 1471 1470 1469 1468 1468 1468 1467 1467 1467 1467 1467 1467 1467 1467 1468 1468 1470 1472 1474 1473
1511 1511 1510 1509 1508 1507 1505 1504 1501 1499 1497 1494 1491 1488 1485 1483 1480 1477 1475 1472 1470 1468 1466 1465 1463 1462 1462 1461 1461 1461 1461 1461 1461 1462 1462 1462 1463 1463 1464 1465 1467 1469 1471
1510 1509 1509 1508 1506 1505 1503 1501 1498 1495 1493 1490 1487 1484 1481 1478 1475 1472 1469 1467 1464 1462 1460 1458 1457 1456 1455 1454 1454 1454 1454 1454 1455 1456 1456 1457 1458 1458 1459 1460 1461 1464 1466
1508 1508 1507 1505 1504 1502 1500 1497 1494 1491 1489 1485 1482 1479 1476 1473 1469 1466 1464 1461 1458 1456 1454 1452 1450 1449 1448 1447 1446 1446 1446 1447 1447 1449 1450 1451 1453 1453 1454 1455 1456 1458 1461
1507 1506 1505 1503 1501 1499 1496 1493 1490 1488 1484 1481 1478 1474 1471 1467 1464 1460 1457 1455 1452 1450 1448 1445 1443 1442 1441 1440 1439 1438 1438 1439 1439 1441 1442 1444 1446 1447 1449 1450 1451 1453 1455
1505 1504 1502 1500 1498 1495 1493 1490 1487 1484 1480 1476 1473 1469 1465 1461 1458 1454 1451 1448 1445 1443 1440 1438 1436 1435 1433 1432 1431 1431 1430 1431 1431 1433 1435 1437 1439 1441 1443 1445 1447 1448 1450
1503 1502 1500 1497 1495 1492 1489 1486 1483 1479 1475 1472 1468 1464 1460 1456 1452 1448 1445 1442 1439 1436 1433 1431 1429 1427 1425 1424 1423 1422 1422 1422 1423 1424 1426 1429 1432 1434 1437 1439 1441 1444 1445
1501 1499 1496 1494 1491 1488 1485 1482 1479 1475 1471 1467 1462 1458 1454 1450 1446 1442 1438 1435 1432 1429 1426 1424 1421 1419 1417 1416 1415 1414 1414 1415 1415 1417 1419 1421 1424 1427 1430 1433 1436 1439 1441
1498 1495 1493 1490 1487 1484 1481 1478 1474 1471 1466 1462 1457 1453 1449 1444 1440 1436 1432 1429 1426 1423 1420 1417 1414 1411 1409 1408 1406 1406 1406 1406 1407 1409 1411 1414 1416 1420 1423 1427 1430 1433 1436
1494 1492 1489 1486 1484 1481 1478 1474 1470 1466 1461 1457 1452 1448 1443 1439 1435 1431 1427 1423 1420 1416 1413 1410 1407 1404 1401 1400 1398 1398 1398 1398 1399 1401 1403 1406 1409 1413 1417 1420 1424 1427 1430
1491 1488 1486 1483 1480 1477 1474 1470 1466 1461 1457 1452 1447 1443 1438 1434 1429 1425 1421 1418 1414 1410 1407 1403 1400 1397 1394 1393 1391 1391 1390 1391 1392 1394 1396 1399 1402 1406 1410 1414 1417 1421 1425
1487 1485 1482 1480 1477 1473 1470 1466 1462 1457 1452 1448 1443 1438 1434 1429 1425 1420 1416 1413 1409 1405 1401 1397 1394 1391 1388 1386 1385 1384 1384 1384 1385 1387 1390 1393 1395 1399 1404 1408 1412 1416 1420
1484 1482 1479 1476 1473 1470 1466 1462 1458 1453 1449 1444 1439 1434 1429 1425 1420 1416 1413 1409 1404 1400 1396 1392 1389 1385 1382 1380 1379 1378 1378 1379 1380 1382 1384 1387 1390 1394 1398 1402 1407 1411 1416
1481 1479 1476 1473 1470 1466 1463 1458 1454 1450 1445 1440 1435 1430 1425 1421 1417 1413 1409 1405 1400 1396 1392 1388 1384 1381 1378 1376 1374 1373 1373 1374 1375 1377 1379 1382 1385 1389 1393 1397 1402 1407 1411
1478 1475 1473 1470 1467 1463 1459 1455 1451 1446 1441 1436 1431 1426 1422 1418 1414 1410 1405 1401 1397 1393 1388 1384 1380 1377 1375 1372 1371 1370 1369 1370 1371 1373 1375 1378 1381 1385 1389 1393 1398 1403 1407
1475 1472 1469 1466 1463 1459 1456 1452 1447 1443 1438 1432 1427 1423 1419 1415 1411 1407 1403 1398 1394 1390 1386 1382 1378 1374 1372 1370 1368 1367 1367 1367 1369 1370 1373 1375 1378 1382 1386 1390 1395 1399 1403
1471 1469 1466 1463 1460 1456 1452 1449 1444 1440 1434 1429 1425 1421 1416 1412 1408 1404 1400 1396 1392 1388 1384 1380 1376 1372 1370 1368 1366 1365 1365 1365 1367 1369 1371 1373 1376 1379 1383 1387 1392 1396 1400
1468 1465 1462 1459 1456 1453 1449 1446 1441 1437 1432 1426 1422 1418 1414 1410 1406 1401 1397 1394 1390 1386 1382 1378 1375 1371 1369 1366 1365 1364 1364 1365 1366 1367 1369 1372 1375 1378 1381 1385 1389 1393 1397